Location: Berlise
(49.6641°N, 4.1077°E)
Time: 19:27:46
(UTC+00:00)

FALCON 9 DEB - Pass Details

Date: 27 January 2021
Orbit: 372 x 389 km, 53.0° (Epoch: 27 February)

Event Time Altitude Azimuth Distance (km) Brightness Sun altitude
Exits shadow 05:37:36 17° 205° (SSW) 1,046 4.9 -16.9°
Maximum altitude 05:39:32 36° 146° (SE) 622 4.3 -16.6°
Drops below altitude 10° 05:42:25 10° 78° (ENE) 1,388 6.8 -16.1°
Sets 05:44:33 0° 69° (ENE) 2,239 7.8 -15.8°
